DW6241 Marysville WA US current weather conditions

sailwx.info

Wind from 092 at 0 knots gusting 3

Air temperature 15.0° C
Dewpoint 13.9° C

Last reported at 2020-Aug-06 18:00 UTC.
Time now 2020-Aug-06 18:21 UTC

Location: N 48°07' W 122°09'.
View on Google Maps.

See reports from other nearby stations

  
Tides and Currents Weather Stations Pressure Air Temp Water Temp Dewpoint Dewpoint Depression Visibility Wind Speed Wind Dir Waves Ship Positions
date/time (UTC)wind fromknots sea level pressurealtimeterstation pressurevisibilityair tempwater tempwave heightnotes
2020-Aug-06 18:00 092 0 gusting 3 15.0
2020-Aug-06 17:45 105 14.4
2020-Aug-06 17:30 039 0 gusting 2 14.4
2020-Aug-06 17:15 006 0 gusting 1 14.4
2020-Aug-06 17:00 006 0 gusting 1 13.9
2020-Aug-06 16:45 053 13.9
2020-Aug-06 16:30 051 13.9
2020-Aug-06 16:15 056 13.9
2020-Aug-06 16:00 060 0 gusting 3 13.9
2020-Aug-06 15:45 311 2 gusting 3 13.9
2020-Aug-06 15:30 256 1 gusting 4 13.9
2020-Aug-06 15:15 020 0 gusting 1 13.9
2020-Aug-06 15:00 020 0 gusting 1 13.9
2020-Aug-06 14:45 020 13.9
2020-Aug-06 14:30 299 1 gusting 7 14.4
2020-Aug-06 14:15 286 3 gusting 6 15.6
2020-Aug-06 14:00 238 1 gusting 2 16.1
2020-Aug-06 13:45 199 0 gusting 2 16.1
2020-Aug-06 13:30 232 0 gusting 1 16.1
2020-Aug-06 13:15 053 1 gusting 5 16.7
2020-Aug-06 13:00 320 1 gusting 4 17.2
2020-Aug-06 12:45 203 0 gusting 4 17.2
2020-Aug-06 12:30 231 0 gusting 1 17.2
2020-Aug-06 12:15 151 17.2
2020-Aug-06 12:00 006 1 gusting 4 16.7
2020-Aug-06 11:45 006 0 gusting 3 16.7
2020-Aug-06 11:30 320 0 gusting 1 16.1
2020-Aug-06 11:15 189 16.1
2020-Aug-06 11:00 175 15.6
2020-Aug-06 10:45 175 15.6
2020-Aug-06 10:30 175 16.1
2020-Aug-06 10:15 176 16.1
2020-Aug-06 10:00 176 16.1
2020-Aug-06 09:45 161 16.1
2020-Aug-06 09:30 249 16.1
2020-Aug-06 09:15 249 16.1
2020-Aug-06 09:00 249 15.6
2020-Aug-06 08:45 249 15.6
2020-Aug-06 08:30 249 15.6
2020-Aug-06 08:15 249 15.0
2020-Aug-06 08:00 249 15.6
2020-Aug-06 07:45 249 16.1
2020-Aug-06 07:30 249 16.7
2020-Aug-06 07:15 249 17.2
2020-Aug-06 07:00 247 17.2
2020-Aug-06 06:45 231 1 gusting 5 17.2
2020-Aug-06 06:30 203 0 gusting 3 17.2
2020-Aug-06 06:15 329 0 gusting 4 16.7
2020-Aug-06 06:00 350 16.7
2020-Aug-06 05:45 350 17.2
2020-Aug-06 05:30 349 17.8
2020-Aug-06 05:15 349 0 gusting 2 17.8
2020-Aug-06 05:00 006 1 gusting 3 18.3
2020-Aug-06 04:45 318 18.3
2020-Aug-06 04:30 340 0 gusting 1 18.9
2020-Aug-06 04:15 002 18.9
2020-Aug-06 04:00 334 19.4
2020-Aug-06 03:45 354 0 gusting 2 19.4
2020-Aug-06 03:30 001 0 gusting 2 20.0
2020-Aug-06 03:15 342 0 gusting 5 20.6
2020-Aug-06 03:00 360 1 gusting 5 21.1
2020-Aug-06 02:45 355 2 gusting 6 21.7
2020-Aug-06 02:30 316 3 gusting 6 22.8
2020-Aug-06 02:15 339 0 gusting 4 23.9
2020-Aug-06 02:00 338 1 gusting 6 24.4
2020-Aug-06 01:45 315 1 gusting 6 25.0
2020-Aug-06 01:30 334 1 gusting 5 25.6
2020-Aug-06 01:15 328 4 gusting 9 25.0
2020-Aug-06 01:00 042 1 gusting 6 25.6
2020-Aug-06 00:45 306 2 gusting 5 25.6
2020-Aug-06 00:30 342 1 gusting 6 26.1
2020-Aug-06 00:15 299 3 gusting 6 25.6
2020-Aug-06 00:00 330 2 gusting 8 26.1
2020-Aug-05 23:45 238 3 gusting 9 26.1
2020-Aug-05 23:30 294 3 gusting 9 26.7
2020-Aug-05 23:15 338 4 gusting 9 26.7
2020-Aug-05 23:00 355 2 gusting 6 27.2
2020-Aug-05 22:45 340 1 gusting 9 26.7
2020-Aug-05 22:30 333 3 gusting 8 26.7
2020-Aug-05 22:15 328 1 gusting 9 26.1
2020-Aug-05 22:00 032 2 gusting 8 26.7
2020-Aug-05 21:45 020 3 gusting 6 26.7
2020-Aug-05 21:30 241 2 gusting 7 26.7
2020-Aug-05 21:15 320 2 gusting 6 26.1
2020-Aug-05 21:00 321 2 gusting 6 26.1
2020-Aug-05 20:45 329 3 gusting 6 26.1
2020-Aug-05 20:30 295 3 gusting 7 26.1
2020-Aug-05 20:15 268 4 gusting 6 26.1
2020-Aug-05 20:00 225 3 gusting 7 26.1
2020-Aug-05 19:45 340 2 gusting 4 25.6
2020-Aug-05 19:30 302 1 gusting 4 25.0
2020-Aug-05 19:15 006 1 gusting 5 25.0
2020-Aug-05 19:00 241 0 gusting 3 24.4
2020-Aug-05 18:45 331 0 gusting 3 23.9
2020-Aug-05 18:30 322 2 gusting 5 23.3
2020-Aug-05 18:15 310 2 gusting 4 22.8
2020-Aug-05 18:00 016 0 gusting 6 22.2
2020-Aug-05 17:45 055 1 gusting 5 21.7
2020-Aug-05 17:30 360 1 gusting 6 21.1
2020-Aug-05 17:15 016 0 gusting 5 20.6
2020-Aug-05 17:00 296 3 gusting 7 20.0
2020-Aug-05 16:45 311 2 gusting 5 20.6
2020-Aug-05 16:30 333 1 gusting 3 20.0
2020-Aug-05 16:15 358 1 gusting 6 19.4
2020-Aug-05 16:00 278 1 gusting 5 18.9
2020-Aug-05 15:45 066 0 gusting 3 17.8
2020-Aug-05 15:30 337 1 gusting 4 17.2
2020-Aug-05 15:15 359 1 gusting 3 16.7
2020-Aug-05 15:00 328 1 gusting 3 16.1
2020-Aug-05 14:45 043 0 gusting 2 15.6
2020-Aug-05 14:30 343 0 gusting 1 13.9
2020-Aug-05 14:15 343 12.2
2020-Aug-05 14:00 343 10.6
2020-Aug-05 13:45 343 10.6
2020-Aug-05 13:30 343 10.6
2020-Aug-05 13:15 343 10.6
2020-Aug-05 13:00 343 11.1
2020-Aug-05 12:45 343 11.1
2020-Aug-05 12:30 343 11.1
2020-Aug-05 12:15 343 11.1
2020-Aug-05 12:00 343 11.1
2020-Aug-05 11:45 343 11.7
2020-Aug-05 11:30 342 0 gusting 1 11.7
2020-Aug-05 11:15 342 0 gusting 2 11.7
2020-Aug-05 11:00 044 11.7
2020-Aug-05 10:45 357 1 gusting 2 11.7
2020-Aug-05 10:30 045 0 gusting 2 11.7
2020-Aug-05 10:15 043 11.7
2020-Aug-05 10:00 043 12.2
2020-Aug-05 09:45 043 12.2
2020-Aug-05 09:30 043 12.2
2020-Aug-05 09:15 043 12.8
2020-Aug-05 09:00 043 12.8
2020-Aug-05 08:45 043 12.8
2020-Aug-05 08:30 043 13.3
2020-Aug-05 08:15 043 13.3
2020-Aug-05 08:00 043 13.9
2020-Aug-05 07:45 043 13.9
2020-Aug-05 07:30 043 13.9
2020-Aug-05 07:15 043 14.4
2020-Aug-05 07:00 043 14.4
2020-Aug-05 06:45 043 15.0
2020-Aug-05 06:30 043 15.0
2020-Aug-05 06:15 043 15.6
2020-Aug-05 06:00 043 15.6
2020-Aug-05 05:45 043 16.1
2020-Aug-05 05:30 043 16.1
2020-Aug-05 05:15 043 16.7
2020-Aug-05 05:00 043 17.2
2020-Aug-05 04:45 043 17.8
2020-Aug-05 04:30 043 18.3
2020-Aug-05 04:15 043 18.9
2020-Aug-05 04:00 043 20.0
2020-Aug-05 03:45 043 21.1
2020-Aug-05 03:30 043 0 gusting 3 22.2
2020-Aug-05 03:15 016 1 gusting 2 22.8
2020-Aug-05 03:00 336 1 gusting 7 23.9
2020-Aug-05 02:45 336 1 gusting 6 24.4
2020-Aug-05 02:30 252 3 gusting 8 25.0
2020-Aug-05 02:15 298 2 gusting 6 26.1
2020-Aug-05 02:00 317 3 gusting 7 26.7
2020-Aug-05 01:45 343 3 gusting 7 27.2
2020-Aug-05 01:30 303 3 gusting 8 27.2
2020-Aug-05 01:15 011 3 gusting 8 27.8
2020-Aug-05 01:00 266 1 gusting 8 27.8
2020-Aug-05 00:45 349 3 gusting 8 28.3
2020-Aug-05 00:30 303 2 gusting 9 28.3
2020-Aug-05 00:15 297 2 gusting 7 28.9
2020-Aug-05 00:00 342 4 gusting 7 28.9
2020-Aug-04 23:45 303 2 gusting 8 28.9
2020-Aug-04 23:30 279 2 gusting 8 28.9
2020-Aug-04 23:15 296 1 gusting 4 29.4
2020-Aug-04 23:00 291 2 gusting 6 28.3
2020-Aug-04 22:45 230 2 gusting 6 28.3
2020-Aug-04 22:30 305 3 gusting 7 28.3
2020-Aug-04 22:15 317 3 gusting 7 28.3
2020-Aug-04 22:00 257 2 gusting 7 28.3
2020-Aug-04 21:45 288 2 gusting 6 27.8
2020-Aug-04 21:30 357 2 gusting 7 27.8
2020-Aug-04 21:15 293 4 gusting 8 27.2
2020-Aug-04 21:00 316 3 gusting 7 27.2
2020-Aug-04 20:45 239 3 gusting 7 26.7
2020-Aug-04 20:30 295 3 gusting 7 26.7
2020-Aug-04 20:15 198 2 gusting 6 26.1
2020-Aug-04 20:00 263 1 gusting 7 26.1
2020-Aug-04 19:45 353 1 gusting 5 25.6
2020-Aug-04 19:30 343 3 gusting 6 25.6
2020-Aug-04 19:15 323 2 gusting 6 25.6
2020-Aug-04 19:00 297 3 gusting 6 25.0
2020-Aug-04 18:45 066 0 gusting 6 24.4
2020-Aug-04 18:30 151 2 gusting 6 24.4
2020-Aug-04 18:15 337 2 gusting 6 23.3
2020-Aug-04 18:00 292 3 gusting 6 23.9